DW4128 Weather Reports


time (UTC)temp
F
wind
direction
speed
knots
gust
knots
rain 1hr
in
rain 24hr
in
rain mn
in
humidity
%
barometer
mb
20260505191516 57 17 0.0 0.0 0.00 0.00 0.38 91 1009.3
20260505190017 57 17 0.0 0.0 0.00 0.00 0.38 91 1009.2
20260505184514 57 17 0.0 0.0 0.00 0.00 0.38 90 1009.1
20260505183013 57 357 0.0 0.0 0.00 0.00 0.38 89 1009.1
20260505181513 58 357 0.0 0.0 0.00 0.00 0.38 88 1009.0
20260505180032 58 0 0.0 0.0 0.00 0.00 0.38 87 1009.0
20260505174512 59 280 0.0 0.0 0.00 0.00 0.38 88 1009.0
20260505173011 59 280 0.0 0.0 0.00 0.00 0.38 87 1009.1
20260505171511 59 280 0.0 0.0 0.00 0.00 0.38 87 1008.9
20260505170011 59 280 0.0 0.0 0.00 0.00 0.37 86 1009.1
20260505164508 59 280 0.0 0.0 0.00 0.00 0.37 85 1009.3
20260505163004 59 280 0.0 0.0 0.00 0.00 0.37 83 1009.2
20260505161559 59 280 0.0 0.0 0.00 0.00 0.37 83 1009.1
20260505153047 60 280 0.0 0.0 0.00 0.00 0.36 82 1009.3
20260505151542 60 280 0.0 0.0 0.00 0.00 0.36 82 1009.3
20260505124516 56 250 0.0 0.0 0.00 0.00 0.34 95 1010.3
20260505123025 55 265 0.0 0.0 0.00 0.00 0.34 95 1010.3
20260505121512 55 236 0.0 0.0 0.00 0.00 0.34 95 1010.4
20260505120019 55 278 0.0 0.0 0.00 0.00 0.33 95 1010.3
20260505114511 55 264 0.0 0.0 0.00 0.00 0.33 95 1010.4
20260505113010 55 246 0.0 0.0 0.00 0.00 0.33 95 1010.5
20260505111518 55 234 0.0 0.0 0.00 0.00 0.32 95 1010.4
20260505101525 55 304 0.0 0.0 0.00 0.00 0.31 95 1010.7
20260505100026 55 263 0.0 0.0 0.00 0.00 0.31 95 1010.7
20260505094507 55 263 0.0 0.0 0.00 0.00 0.31 95 1010.7
20260505093007 55 265 0.0 0.0 0.00 0.00 0.30 95 1010.5
20260505091506 54 265 0.0 0.0 0.00 0.00 0.30 95 1010.4
20260505090005 54 265 0.0 0.0 0.00 0.00 0.28 95 1010.5
20260505084506 54 265 0.0 0.0 0.00 0.00 0.28 95 1010.4
20260505083005 54 265 0.0 0.0 0.00 0.00 0.28 95 1010.4
20260505081504 53 265 0.0 0.0 0.00 0.00 0.28 95 1010.3
20260505080004 53 264 0.0 0.0 0.00 0.00 0.28 95 1010.3
20260505074503 53 265 0.0 0.0 0.00 0.00 0.27 95 1010.3
20260505073010 53 257 0.0 0.0 0.00 0.00 0.27 95 1010.4
20260505071502 53 272 0.0 0.0 0.00 0.00 0.26 95 1010.4
20260505070002 52 272 0.0 0.0 0.00 0.00 0.26 94 1010.3
20260505064601 52 339 0.0 0.0 0.00 0.00 0.25 94 1010.2
20260505063114 52 251 0.0 0.0 0.00 0.00 0.25 93 1010.2
20260505061559 52 267 0.0 0.0 0.00 0.00 0.24 93 1010.1
20260505060058 52 282 0.0 0.0 0.00 0.00 0.23 93 1010.0
20260505054558 52 233 0.0 0.0 0.00 0.00 0.22 93 1010.1
20260505053057 52 233 0.0 0.0 0.00 0.00 0.21 92 1009.9
20260505051556 52 233 0.0 0.0 0.00 0.00 0.20 91 1010.0
20260505041549 53 216 0.9 0.0 0.00 0.00 0.07 84 1010.2
20260505040048 54 246 2.6 0.0 0.00 0.00 0.03 80 1010.0
20260505034550 54 198 3.5 0.0 0.00 0.00 0.02 76 1009.9
20260505033045 53 202 0.0 0.0 0.00 0.00 0.01 83 1009.7
20260505031549 53 202 0.0 0.0 0.00 0.00 0.01 82 1009.7
20260505030044 54 202 0.0 0.0 0.00 0.00 0.01 82 1009.7
20260505024542 54 202 0.9 0.0 0.00 0.00 0.01 79 1009.9
20260505023046 54 151 0.0 0.0 0.00 0.00 0.01 81 1010.1
20260505021541 54 193 1.7 0.0 0.00 0.00 0.01 76 1010.4
20260505020039 54 188 0.9 0.0 0.00 0.00 0.01 77 1010.6
20260505014539 54 196 0.0 0.0 0.00 0.00 0.01 77 1010.7
20260505013037 54 145 0.0 0.0 0.00 0.00 0.01 83 1010.6
20260505011538 54 145 0.0 0.0 0.00 0.00 0.01 83 1010.8
20260505010100 54 145 0.0 0.0 0.00 0.00 0.00 81 1011.0
20260505004534 54 145 0.0 0.0 0.00 0.00 0.00 78 1011.4
20260505003039 54 145 0.9 0.0 0.00 0.00 0.00 79 1011.5
20260505001531 55 28 0.0 0.0 0.00 0.00 0.00 82 1011.7
20260505000041 55 27 0.0 0.0 0.00 0.00 0.00 80 1011.9
20260504234528 55 27 0.0 0.0 0.00 0.00 0.00 77 1012.2
20260504233026 56 27 0.0 0.0 0.00 0.00 0.00 74 1012.5
20260504231525 56 27 0.0 0.0 0.00 0.00 0.00 70 1012.8
20260504230036 56 27 0.0 0.0 0.00 0.00 0.00 69 1012.9
20260504224523 57 27 0.0 0.0 0.00 0.00 0.00 67 1013.1
20260504223020 57 27 0.0 0.0 0.00 0.00 0.00 64 1013.2
20260504221536 58 27 0.0 0.0 0.00 0.00 0.00 63 1013.3
20260504220016 58 25 0.0 0.0 0.00 0.00 0.00 58 1013.3
20260504214515 58 25 0.0 0.0 0.00 0.00 0.00 57 1013.5
20260504213016 59 25 0.0 0.0 0.00 0.00 0.00 56 1013.7
20260504211515 59 233 0.0 0.0 0.00 0.00 0.00 55 1013.8
20260504210019 59 282 0.0 0.0 0.00 0.00 0.00 55 1014.0
20260504204514 59 284 0.0 0.0 0.00 0.00 0.00 55 1013.9
20260504203014 59 256 0.0 0.0 0.00 0.00 0.00 56 1014.0
20260504201513 60 230 0.0 0.0 0.00 0.00 0.00 54 1014.0
20260504200013 60 258 0.0 0.0 0.00 0.00 0.00 55 1013.9
20260504194513 60 274 0.0 0.0 0.00 0.00 0.00 56 1013.9
20260504193013 60 280 0.0 0.0 0.00 0.00 0.00 58 1013.7